User: anonymous   Login
Location: Milton
(43.5183°N, 79.8775°W)
Time: 03:43:49
(UTC+00:00)
Language:

SEEDS - Orbit

View from above orbital plane
View from above orbital plane
View from above satellite
View from above satellite

Ground track
Ground track

The orbit data is extracted from the following two-line orbital elements,

1 32791U 08021J   23087.41768874  .00009413  00000-0  85207-3 0  9990
2 32791  97.6501  60.4492 0011040 333.4187  26.6467 14.95564412809584
Epoch (UTC): 28 March 2023 10:01:28
Eccentricity: 0.0011040
inclination: 97.6501°
perigee height: 573 km
apogee height: 588 km
right ascension of ascending node: 60.4492°
argument of perigee: 333.4187°
revolutions per day: 14.95564412
mean anomaly at epoch: 26.6467°
orbit number at epoch: 80958

The dashed part of the orbit path shows where the satellite is in the earth's shadow,  

DLR